Weather in Samara

Russia / Samara Oblast     53°11′43″N   50°06′06″E
temp.,
°C
wind,
m/s
gust,
m/s
humid.,
%
clouds,
%
prec.,
mm/h
press.,
hPa
HPBL,
m
23 may, mon
mon2301:00+7ne1394100 2.2 997194
04:00+6nne2492100 2.9 997245
07:00+6n2593100 1.1 998320
10:00+6n3488100 2.1 999397
13:00+8ssw027556 0.0 1000592
16:00+10w3461100 0.1 1001952
19:00+10wnw246197 0.0 1002873
22:00+7wnw117214 0.0 100396
24 may, tue
tue2401:00+4wnw128054 0.0 100464
04:00+3wnw23815 0.0 100571
07:00+6wsw24670 0.0 1006320
10:00+10sw34485 0.0 10061054
13:00+14wsw46434 0.0 10061968
16:00+15sw464097 0.0 10062249
19:00+13wsw255884 0.1 1007627
22:00+8ene127340 0.1 100742
25 may, wed
wed2501:00+8ese247572 0.0 1007124
04:00+6nw118229 0.0 100723
07:00+7nw357710 0.0 1009470
10:00+7nw3573100 0.0 1010874
13:00+10nw345678 0.0 10111407
16:00+10nw345284 0.1 10111412
19:00+10wnw34565 0.1 10121108
22:00+6wnw25735 0.1 1013125
26 may, thu
thu2601:00+5wnw24855 0.0 1013112
04:00+4wnw25880 0.0 1014122
07:00+7w3670100 0.0 1014326
10:00+10wsw4556100 0.0 10141298
13:00+12wsw5743100 0.1 10132208
16:00+12sw474797 0.1 10131745
19:00+12ssw3856100 0.0 10111099
22:00+11s41164100 0.0 1009651
27 may, fri
fri2701:00+10ssw61691100 3.0 1006875
04:00+11sw41294100 4.1 1004533
07:00+11ssw51393100 1.4 1003911
10:00+11ssw51291100 2.4 10011201
13:00+12ssw4109087 0.8 1001910
16:00+15wsw5108197 3.1 10011340
19:00+13wsw498594 1.1 1001731
22:00+11wsw379498 1.1 1003463